Hourly Data Report for May 23, 2022

ALGONQUIN PARK EAST GATE
ONTARIO
Current Station Operator: ECCC - MSC

45°32'00.000" N
78°16'00.000" W
397.00 m
6080192
71581
TNK

Download Data

Hourly Data (May 2022)
Hourly Data Report for May 23, 2022
TIME
LST
Temp Definition
°C
Dew Point Definition
°C
Rel Hum Definition
%
Precip. Amount Definition
mm

Wind Dir Definition
10's deg

Wind Spd Definition
km/h
Visibility Definition
km
Stn Press Definition
kPa
Hmdx Definition


Wind Chill Definition


Weather Definition


00:00 6.3 5.8 97 0.0   0   97.61     LegendNANA
01:00 5.7 5.4 98 0.0   0   97.66     LegendNANA
02:00 5.3 4.9 97 0.0   0   97.69     LegendNANA
03:00 5.5 5.2 98 0.0   0   97.70     LegendNANA
04:00 5.2 4.9 98 0.0   0   97.74     LegendNANA
05:00 4.8 4.5 98 0.0   0   97.78     LegendNANA
06:00 5.7 5.5 98 0.0 0 1   97.86     LegendNANA
07:00 7.6 5.3 85 0.0 3 2   97.89     LegendNANA
08:00 8.8 5.2 78 0.0 35 3   97.92     LegendNANA
09:00 10.4 3.2 61 0.0 29 3   97.93     LegendNANA
10:00 11.9 -1.8 39 0.0 35 6   97.93     LegendNANA
11:00 12.7 -0.4 40 0.0 35 7   97.94     LegendNANA
12:00 14.1 0.6 40 0.0 30 6   97.90     LegendNANA
13:00 14.5 0.8 39 0.0 1 7   97.87     LegendNANA
14:00 14.2 -1.5 34 0.0 28 4   97.83     LegendNANA
15:00 14.6 0.6 39 0.0 27 5   97.79     LegendNANA
16:00 13.9 0.4 40 0.0 1 3   97.80     LegendNANA
17:00 13.6 -0.1 39 0.0 1 3   97.82     LegendNANA
18:00 13.0 0.8 43 0.0 5 3   97.80     LegendNANA
19:00 12.1 1.6 49 0.0 7 2   97.84     LegendNANA
20:00 10.2 3.6 64 0.0 0 1   97.87     LegendNANA
21:00 7.5 3.7 77 0.0   0   97.91     LegendNANA
22:00 6.6 4.1 84 0.0   0   97.93     LegendNANA
23:00 6.6 4.6 87 0.0   0   97.93     LegendNANA

Notes on Data Quality.

Legend

  • E = Estimated
  • M = Missing
  • NA = Not Available*
  • [empty] = Indicates an unobserved value
Date modified: